Printer-friendly version

IAU Minor Planet Center

Minor Planet Center

MPEC 2007-U51 : 2007 UF6

The following Minor Planet Electronic Circular may be linked-to from your own Web pages, but must not otherwise be redistributed electronically.


Read MPEC 2007-U50 Read MPEC 2007-U52


M.P.E.C. 2007-U51                                Issued 2007 Oct. 22, 14:32 UT

     The Minor Planet Electronic Circulars contain information on unusual
         minor planets and routine data on comets.  They are published
   on behalf of Commission 20 of the International Astronomical Union by the
          Minor Planet Center, Smithsonian Astrophysical Observatory,
                          Cambridge, MA 02138, U.S.A.

             Prepared using the Tamkin Foundation Computer Network

                              MPC@CFA.HARVARD.EDU
          URL http://www.cfa.harvard.edu/iau/mpc.html  ISSN 1523-6714

                                   2007 UF6

Observations:
     K07U06F* C2007 10 21.25704 01 26 54.16 -01 54 20.3          19.4 V EU051G96
     K07U06F  C2007 10 21.26222 01 26 58.23 -01 54 54.3          19.5 V EU051G96
     K07U06F  C2007 10 21.26743 01 27 02.30 -01 55 28.6          19.5 V EU051G96
     K07U06F  C2007 10 21.27263 01 27 06.33 -01 56 02.6          19.3 V EU051G96
     K07U06F  C2007 10 21.31065 01 27 36.25 -02 00 12.9          19.0 V EU051G96
     K07U06F  C2007 10 21.31541 01 27 40.03 -02 00 44.1          19.3 V EU051G96
     K07U06F  C2007 10 21.32023 01 27 43.84 -02 01 16.1          19.4 V EU051G96
     K07U06F  C2007 10 21.32518 01 27 47.77 -02 01 48.9          19.3 V EU051G96
     K07U06F  C2007 10 21.34531 01 28 03.86 -02 04 02.7          19.5 V EU051G96
     K07U06F  C2007 10 21.35202 01 28 09.08 -02 04 46.5          20.1 V EU051G96
     K07U06F  C2007 10 21.35872 01 28 14.61 -02 05 31.9          19.4 V EU051G96
     K07U06F  C2007 10 22.20560 01 42 22.57 -03 50 41.6          19.9 V EU051G96
     K07U06F  C2007 10 22.20716 01 42 24.19 -03 50 54.0          19.2 V EU051G96
     K07U06F  C2007 10 22.20872 01 42 25.77 -03 51 07.0          19.4 V EU051G96
     K07U06F  C2007 10 22.21028 01 42 27.21 -03 51 20.7          19.4 V EU051G96

Observer details:
G96 Mt. Lemmon Survey.  Observer A. D. Grauer.  Measurers E. C. Beshore,
    A. Boattini, G. J. Garradd, A. R. Gibbs, A. D. Grauer, R. E. Hill,
    R. A. Kowalski, S. M. Larson, R. H. McNaught.  1.5-m reflector + CCD.

Orbital elements:
2007 UF6                                                 Earth MOID = 0.0160 AU
Epoch 2007 Oct. 27.0 TT = JDT 2454400.5                 MPC
M 349.39492              (2000.0)            P               Q
n   0.35442037     Peri.  231.56403     +0.30636526     -0.95167261
a   1.9775324      Node   200.62643     +0.89122939     +0.29467386
e   0.5302758      Incl.    3.48886     +0.33444058     +0.08652488
P   2.78           H   25.7           G   0.15           U   8
Residuals in seconds of arc
071021 G96  0.4-  0.2+    071021 G96  0.5+  0.0     071021 G96  0.2+  0.1-
071021 G96  0.1+  0.1+    071021 G96  0.4+  0.1-    071022 G96  0.0   0.4-
071021 G96  0.1+  0.1-    071021 G96  0.4+  0.1-    071022 G96  0.2+  0.2+
071021 G96  0.4-  0.1-    071021 G96  0.7+  0.2-    071022 G96  0.2-  0.2+
071021 G96  0.3+  0.2-    071021 G96  1.8-  0.6+    071022 G96 (2.7-  0.5-)

Ephemeris:
2007 UF6                 a,e,i = 1.98, 0.53, 3                   q = 0.9289
Date    TT    R. A. (2000) Decl.     Delta      r     Elong.  Phase     V
2007 10 17    00 48.18   +03 06.8    0.0626   1.058   169.0    10.4    20.5
2007 10 18    00 54.43   +02 17.7    0.0571   1.053   168.8    10.6    20.3
2007 10 19    01 02.04   +01 18.4    0.0516   1.047   168.6    10.9    20.0
2007 10 20    01 11.45   +00 05.6    0.0463   1.041   168.2    11.3    19.8
2007 10 21    01 23.30   -01 25.2    0.0411   1.036   167.4    12.1    19.6
2007 10 22    01 38.56   -03 20.6    0.0361   1.030   165.8    13.7    19.3
2007 10 23    01 58.65   -05 49.6    0.0314   1.025   162.8    16.7    19.1
2007 10 24    02 25.75   -09 03.0    0.0271   1.020   157.8    21.6    19.0
2007 10 25    03 02.91   -13 09.3    0.0234   1.015   150.0    29.4    18.9
2007 10 26    03 53.52   -17 59.1    0.0207   1.010   138.8    40.5    18.9
2007 10 27    04 58.43   -22 39.4    0.0193   1.005   124.6    54.5    19.1
2007 10 28    06 10.93   -25 42.3    0.0196   1.000   109.3    69.6    19.6
2007 10 29    07 18.18   -26 28.5    0.0214   0.996    95.6    83.2    20.3
2007 10 30    08 11.77   -25 40.7    0.0245   0.991    84.9    93.7    21.0
2007 10 31    08 51.46   -24 17.0    0.0283   0.987    77.1   101.3    21.6
2007 11 01    09 20.47   -22 49.9    0.0327   0.983    71.5   106.7    22.2
2007 11 02    09 42.02   -21 31.4    0.0374   0.979    67.5   110.5    22.7
2007 11 03    09 58.43   -20 24.0    0.0424   0.975    64.7   113.1    23.1
2007 11 04    10 11.27   -19 27.1    0.0475   0.971    62.6   114.9    23.5
2007 11 05    10 21.55   -18 39.0    0.0527   0.967    61.2   116.1    23.8
2007 11 06    10 29.99   -17 58.3    0.0580   0.964    60.2   116.8    24.0

Timothy B. Spahr             (C) Copyright 2007 MPC           M.P.E.C. 2007-U51

Read MPEC 2007-U50 Read MPEC 2007-U52


Our Web policy. Index to the CBAT/MPC/ICQ pages.


Valid HTML 4.01!